ランキン彗星

P/2021 R5 ( Rankin )

English version
Home page
Updated on March 5, 2023

---------------------------------------------------------------------

・ プロフィール

発見日 2021年9月9日
発見光度 19.3等
発見者 David Rankin (Mt. Lemmon)

・ 写真集

・ 軌道要素

Epoch 2023 Feb. 25.0 TT = JDT 2460000.5
T 2022 Jan. 12.39760 TT                                 Rudenko
q   3.3233589            (2000.0)            P               Q
n   0.09390746     Peri.  167.42699     +0.88662351     -0.45408781
a   4.7936830      Node   219.95810     +0.41161597     +0.86128142
e   0.3067212      Incl.    7.85462     +0.21088158     +0.22803196
P  10.5
>From 231 observations 2021 June 22-2022 Dec. 14, mean residual 0".5.

・ 光度変化

        m1 = 6.0 + 5 logΔ + 20.0 log r

---------------------------------------------------------------------

軌道要素はM.P.E.C. 2022-Y15に掲載されたものです。
光度グラフはComet for Windowsで作成したものです。

---------------------------------------------------------------------

Copyright(C) Seiichi Yoshida (comet@aerith.net). All rights reserved.